Terminal Aerodrome Forecast
Issued by NWS Twin Cities, MN

Home | Current Version | Previous Version | Graphics & Text | Print | Product List | Glossary On
Versions: 1 2 3 4 5 6 7 8 9 10 11 12 13 14 15 16 17 18 19 20
000
FTUS43 KMPX 251733
TAFSTC
TAF
KSTC 251733Z 2518/2618 26016G25KT P6SM VCSH OVC025
     FM260400 28014G22KT P6SM OVC035
     FM261000 29014G24KT P6SM SKC
     FM261500 30020G32KT P6SM SKC=

USA.gov is the U.S. government's official web portal to all federal, state and local government web resources and services.